Regional Weather Roundup
Issued by NWS Sioux Falls, SD

Home | Current Version | Previous Version | Text Only | Print | Product List | Glossary On
Versions: 1 2 3 4 5 6 7 8 9 10 11 12 13 14 15 16 17 18 19 20 21 22 23 24 25 26 27 28 29 30 31 32 33 34 35 36 37 38 39 40 41 42 43 44 45 46 47 48 49 50
000
ASUS43 KFSD 241402
RWRFSD

WEATHER ROUNDUP FOR SE SOUTH DAKOTA/SW MINNESOTA/NW IOWA
NATIONAL WEATHER SERVICE SIOUX FALLS SD
900 AM CDT SAT SEP 24 2016

NOTE: "FAIR" INDICATES FEW OR NO CLOUDS BELOW 12,000 FEET WITH NO
SIGNIFICANT WEATHER AND OR OBSTRUCTIONS TO VISIBILITY.


SDZ038>040-050-052>070-241500-
SOUTHEAST SOUTH DAKOTA

CITY           SKY/WX    TMP DP  RH WIND       PRES   REMARKS
CHAMBERLAIN    CLOUDY    67  58  72 SW13G23   29.82R
HURON          MOSUNNY   72  64  76 SE15G26   29.83R
MADISON        FAIR      68  68 100 SE20G26   29.91F
MITCHELL       CLOUDY    71  64  78 SE16G26   29.83S
SIOUX FALLS    PTSUNNY   71  66  84 SE20      29.92F
WINNER         CLOUDY    63  51  65 W14       29.85R
YANKTON        CLOUDY    72  64  78 SE9       29.87S
$$

MNZ071-072-080-081-089-090-097-098-241500-
SOUTHWEST MINNESOTA

CITY           SKY/WX    TMP DP  RH WIND       PRES   REMARKS
FAIRMONT       CLOUDY    68  65  90 SE12      30.05F FOG
JACKSON        CLOUDY    68  63  83 SE13G20   30.03F HAZE
LUVERNE        PTSUNNY   68  63  83 SE10      29.97S
MARSHALL       CLOUDY    70  66  87 SE17G26   29.97S
MONTEVIDEO     CLOUDY    70  66  88 S14G24    29.99R
PIPESTONE        N/A     70  64  83 SE16G22   29.96S FOG
REDWOOD FALLS  CLOUDY    68  64  87 SE20G29   29.99F FOG
TRACY          CLOUDY    69  67  93 SE16      29.99S FOG
WINDOM         PTSUNNY   68  64  88 SE17G23   30.02S
WORTHINGTON    CLOUDY    67  65  93 SE13      30.01S FOG
$$

IAZ001>003-012>014-020>022-031-032-NEZ013-014-SDZ071-241500-
NORTHWEST IOWA

CITY           SKY/WX    TMP DP  RH WIND       PRES   REMARKS
CHEROKEE       MOSUNNY   71  67  89 SE13G18   29.99S
DENISON        MOSUNNY   73  64  73 SE13      29.97S
ESTHERVILLE    CLOUDY    67  66  97 SE18      30.03S FOG
LE MARS        SUNNY     72  64  78 SE13G18   29.95F
ORANGE CITY    SUNNY     72  66  83 SE7       29.96F
SHELDON        CLOUDY    70  68  94 SE10G17   29.96F
SIOUX CITY     SUNNY     73  66  78 SE13      29.93S
SPENCER        PTSUNNY   69  66  90 SE14G21   30.01F FOG
STORM LAKE     CLOUDY    68  66  94 SE12      30.02R FOG
$$

ABBREVIATIONS USED IN REMARKS
   TC - TEMPERATURE IN CELSIUS
  WCI - WIND CHILL INDEX
   HX - HEAT INDEX
  VSB - VISIBILITY




USA.gov is the U.S. government's official web portal to all federal, state and local government web resources and services.